TimeMDT,TemperatureF,Dew PointF,Humidity,Sea Level PressureIn,VisibilityMPH,Wind Direction,Wind SpeedMPH,Gust SpeedMPH,PrecipitationIn,Events,Conditions,WindDirDegrees,DateUTC
12:15 AM,64.4,55.4,73,30.08,10.0,SW,3.5,-,N/A,,Overcast,230,2013-09-03 06:15:00
12:35 AM,64.4,55.4,73,30.09,10.0,Calm,Calm,-,N/A,,Overcast,0,2013-09-03 06:35:00
12:55 AM,66.2,57.2,73,30.08,10.0,SW,3.5,-,N/A,,Overcast,230,2013-09-03 06:55:00
1:15 AM,66.2,57.2,73,30.09,10.0,SSW,4.6,-,N/A,,Overcast,200,2013-09-03 07:15:00
1:36 AM,66.2,55.4,68,30.08,10.0,SW,8.1,-,N/A,,Overcast,220,2013-09-03 07:36:00
1:55 AM,66.2,57.2,73,30.09,10.0,WSW,3.5,-,N/A,,Overcast,250,2013-09-03 07:55:00
2:15 AM,66.2,55.4,68,30.09,10.0,NNE,3.5,-,N/A,,Overcast,20,2013-09-03 08:15:00
2:35 AM,64.4,57.2,77,30.09,10.0,Calm,Calm,-,N/A,,Overcast,0,2013-09-03 08:35:00
2:55 AM,66.2,55.4,68,30.10,10.0,South,4.6,-,N/A,,Overcast,180,2013-09-03 08:55:00
3:15 AM,66.2,55.4,68,30.10,10.0,WSW,4.6,-,N/A,,Overcast,250,2013-09-03 09:15:00
3:35 AM,64.4,57.2,77,30.10,10.0,Calm,Calm,-,N/A,,Overcast,0,2013-09-03 09:35:00
3:55 AM,64.4,57.2,77,30.10,10.0,NNE,3.5,-,N/A,,Overcast,20,2013-09-03 09:55:00
4:35 AM,64.4,55.4,73,30.11,10.0,Calm,Calm,-,N/A,,Overcast,0,2013-09-03 10:35:00
4:55 AM,64.4,55.4,73,30.11,10.0,SSW,4.6,-,N/A,,Mostly Cloudy,200,2013-09-03 10:55:00
5:15 AM,66.2,55.4,68,30.12,10.0,West,3.5,-,N/A,,Mostly Cloudy,270,2013-09-03 11:15:00
5:35 AM,68.0,53.6,60,30.12,10.0,WNW,4.6,-,N/A,,Overcast,300,2013-09-03 11:35:00
5:55 AM,66.2,53.6,64,30.12,10.0,Calm,Calm,-,N/A,,Overcast,0,2013-09-03 11:55:00
6:15 AM,66.2,53.6,64,30.13,10.0,Calm,Calm,-,N/A,,Overcast,0,2013-09-03 12:15:00
6:35 AM,66.2,53.6,64,30.13,10.0,NE,5.8,-,N/A,,Overcast,40,2013-09-03 12:35:00
6:55 AM,66.2,53.6,64,30.14,10.0,NE,3.5,-,N/A,,Scattered Clouds,40,2013-09-03 12:55:00
7:15 AM,66.2,53.6,64,30.14,10.0,Calm,Calm,-,N/A,,Clear,0,2013-09-03 13:15:00
7:35 AM,66.2,53.6,64,30.14,10.0,NE,3.5,-,N/A,,Clear,40,2013-09-03 13:35:00
7:55 AM,68.0,53.6,60,30.14,10.0,Calm,Calm,-,N/A,,Clear,0,2013-09-03 13:55:00
8:15 AM,69.8,55.4,60,30.14,10.0,Calm,Calm,-,N/A,,Clear,0,2013-09-03 14:15:00
8:35 AM,71.6,55.4,57,30.15,10.0,SW,4.6,-,N/A,,Clear,230,2013-09-03 14:35:00
8:55 AM,71.6,55.4,57,30.15,10.0,Calm,Calm,-,N/A,,Clear,0,2013-09-03 14:55:00
9:15 AM,75.2,57.2,53,30.15,10.0,West,6.9,-,N/A,,Clear,280,2013-09-03 15:15:00
9:55 AM,77.0,55.4,47,30.15,10.0,West,5.8,-,N/A,,Clear,260,2013-09-03 15:55:00
10:15 AM,78.8,53.6,42,30.15,10.0,WNW,3.5,-,N/A,,Clear,300,2013-09-03 16:15:00
10:55 AM,78.8,53.6,42,30.16,10.0,Calm,Calm,-,N/A,,Clear,0,2013-09-03 16:55:00
11:15 AM,78.8,53.6,42,30.16,10.0,NNW,4.6,-,N/A,,Clear,340,2013-09-03 17:15:00
11:35 AM,80.6,51.8,37,30.15,9.0,NE,6.9,-,N/A,,Clear,50,2013-09-03 17:35:00
11:55 AM,80.6,53.6,39,30.15,5.0,North,8.1,-,N/A,,Clear,10,2013-09-03 17:55:00
12:15 PM,80.6,53.6,39,30.15,7.0,NE,3.5,-,N/A,,Clear,40,2013-09-03 18:15:00
12:35 PM,78.8,55.4,44,30.15,9.0,North,6.9,-,N/A,,Clear,10,2013-09-03 18:35:00
1:55 PM,82.4,51.8,35,30.13,5.0,Calm,Calm,-,N/A,,Clear,0,2013-09-03 19:55:00
2:15 PM,82.4,51.8,35,30.13,8.0,Calm,Calm,-,N/A,,Clear,0,2013-09-03 20:15:00
2:35 PM,82.4,55.4,39,30.12,10.0,NE,6.9,-,N/A,,Mostly Cloudy,40,2013-09-03 20:35:00
2:55 PM,82.4,53.6,37,30.12,10.0,North,4.6,-,N/A,,Partly Cloudy,360,2013-09-03 20:55:00
3:15 PM,80.6,53.6,39,30.12,10.0,NNE,8.1,-,N/A,,Mostly Cloudy,30,2013-09-03 21:15:00
3:35 PM,80.6,53.6,39,30.11,10.0,NE,10.4,-,N/A,,Mostly Cloudy,40,2013-09-03 21:35:00
3:55 PM,82.4,53.6,37,30.11,10.0,NNE,5.8,-,N/A,,Partly Cloudy,30,2013-09-03 21:55:00
4:15 PM,82.4,51.8,35,30.12,10.0,NE,9.2,-,N/A,,Mostly Cloudy,40,2013-09-03 22:15:00
4:35 PM,80.6,55.4,42,30.12,10.0,NNE,6.9,-,N/A,,Overcast,30,2013-09-03 22:35:00
4:55 PM,82.4,51.8,35,30.12,10.0,NE,6.9,-,N/A,,Mostly Cloudy,50,2013-09-03 22:55:00
5:15 PM,80.6,53.6,39,30.12,10.0,NNE,6.9,-,N/A,,Scattered Clouds,20,2013-09-03 23:15:00
5:35 PM,80.6,53.6,39,30.12,10.0,NNE,6.9,-,N/A,,Scattered Clouds,20,2013-09-03 23:35:00
5:55 PM,80.6,53.6,39,30.12,10.0,NNE,3.5,-,N/A,,Clear,30,2013-09-03 23:55:00
6:15 PM,82.4,51.8,35,30.12,10.0,NE,5.8,-,N/A,,Clear,50,2013-09-04 00:15:00
6:55 PM,80.6,50.0,34,30.12,10.0,East,3.5,-,N/A,,Clear,90,2013-09-04 00:55:00
7:15 PM,80.6,50.0,34,30.12,10.0,NNE,5.8,-,N/A,,Clear,20,2013-09-04 01:15:00
7:35 PM,80.6,48.2,32,30.12,10.0,NE,4.6,-,N/A,,Clear,40,2013-09-04 01:35:00
7:55 PM,78.8,48.2,34,30.13,10.0,Calm,Calm,-,N/A,,Scattered Clouds,0,2013-09-04 01:55:00
8:15 PM,77.0,46.4,34,30.13,10.0,Calm,Calm,-,N/A,,Overcast,0,2013-09-04 02:15:00
8:35 PM,77.0,46.4,34,30.13,10.0,Calm,Calm,-,N/A,,Overcast,0,2013-09-04 02:35:00
8:55 PM,75.2,48.2,38,30.14,10.0,South,4.6,-,N/A,,Overcast,190,2013-09-04 02:55:00
9:15 PM,73.4,48.2,41,30.15,10.0,Calm,Calm,-,N/A,,Overcast,0,2013-09-04 03:15:00
9:35 PM,73.4,48.2,41,30.15,10.0,SW,4.6,-,N/A,,Partly Cloudy,230,2013-09-04 03:35:00
10:15 PM,71.6,44.6,38,30.16,10.0,Calm,Calm,-,N/A,,Clear,0,2013-09-04 04:15:00
10:35 PM,71.6,46.4,41,30.16,10.0,Calm,Calm,-,N/A,,Clear,0,2013-09-04 04:35:00
10:55 PM,71.6,46.4,41,30.16,10.0,Calm,Calm,-,N/A,,Clear,0,2013-09-04 04:55:00
11:15 PM,71.6,46.4,41,30.18,10.0,SSW,8.1,-,N/A,,Partly Cloudy,210,2013-09-04 05:15:00
11:35 PM,73.4,51.8,47,30.17,10.0,West,12.7,23.0,N/A,,Mostly Cloudy,260,2013-09-04 05:35:00
11:55 PM,71.6,53.6,53,30.17,10.0,SSW,12.7,-,N/A,,Overcast,210,2013-09-04 05:55:00